Location: Ammerl�gen
(47.2167°N, 9.6000°E)
Time: 04:25:08
(UTC+00:00)

Meteor 2-3 Rocket - Pass Details

Date: 21 April 2021
Orbit: 840 x 887 km, 81.2° (Epoch: 16 May)

Event Time Altitude Azimuth Distance (km) Brightness Sun altitude
Rises 20:13:43 0° 348° (NNW) 3,488 7.8 -17.5°
Reaches altitude 10° 20:16:11 10° 348° (NNW) 2,540 7.0 -17.9°
Maximum altitude 20:21:58 85° 260° (W) 878 3.7 -18.6°
Enters shadow 20:25:26 25° 174° (S) 1,671 4.8 -19.0°
